Location: *
(45.9500°N, 9.0833°E)
Time: 22:46:27
(UTC+00:00)

Vanguard 2 Rocket - Pass Details

Date: 13 June 2021
Orbit: 555 x 3325 km, 32.9° (Epoch: 02 August)

Event Time Altitude Azimuth Distance (km) Brightness Sun altitude
Rises 00:46:21 0° 265° (W) 5,506 10.7 -18.3°
Reaches altitude 10° 00:51:19 10° 255° (WSW) 3,970 9.8 -18.0°
Enters shadow 00:57:17 24° 221° (SW) 2,413 8.5 -17.6°
Maximum altitude 00:58:38 25° 206° (SSW) 2,223 - -17.6°
Drops below altitude 10° 01:03:35 10° 153° (SSE) 2,581 - -17.2°
Exits shadow 01:04:21 - 147° (SSE) 2,767 9.1 -17.2°
Sets 01:06:05 0° 138° (SE) 3,262 9.5 -17.0°
